When you browse on this site, cookies collect data to enhance your experience and personalize the content and advertising you see.
Visit our Privacy Policy to learn more. By continuing to use the site, you agree to this use of cookies and data.
  • In Hungary
  • List of Countries
  • For 7 days
  • Water Temperature
  • Satellite Maps
  • Weather Map
  • News
  • Weather Widgets
  • user-avatar
    Login

    Hourly Weather Raztoka

    Today, 18 November, Sunday

    Time Temperature Precipitation Wind Pressure Humidity
    00:00 -3°C° 0 mm 2 mps 731 mmHg 62%
    01:00 -4°C° 0 mm 2 mps 731 mmHg 66%
    02:00 -4°C° 0 mm 2 mps 730 mmHg 67%
    03:00 -4°C° 0 mm 2 mps 730 mmHg 68%
    04:00 -2°C° 0 mm 1 mps 729 mmHg 69%
    05:00 -2°C° 0 mm 1 mps 729 mmHg 70%
    06:00 -2°C° 0 mm 1 mps 729 mmHg 71%
    07:00 -2°C° 0 mm 1 mps 728 mmHg 70%
    08:00 -1°C° 0 mm 1 mps 728 mmHg 65%
    09:00 0°C° 0 mm 1 mps 728 mmHg 61%
    10:00 +1°C° 0 mm 2 mps 728 mmHg 56%
    11:00 +1°C° 0 mm 2 mps 727 mmHg 55%
    12:00 +2°C° 0 mm 2 mps 727 mmHg 54%
    13:00 +1°C° 0 mm 2 mps 726 mmHg 57%
    14:00 -1°C° 0.1 mm 2 mps 725 mmHg 60%
    15:00 +1°C° 0.1 mm 1 mps 725 mmHg 62%
    16:00 0°C° 0.1 mm 1 mps 724 mmHg 65%
    17:00 0°C° 0.1 mm 1 mps 724 mmHg 65%
    18:00 0°C° 0.1 mm 1 mps 724 mmHg 65%
    19:00 0°C° 0.1 mm 1 mps 723 mmHg 66%
    20:00 -1°C° 0 mm 1 mps 723 mmHg 67%
    21:00 -1°C° 0 mm 1 mps 723 mmHg 69%
    22:00 -1°C° 0 mm 1 mps 722 mmHg 70%
    23:00 -3°C° 0 mm 2 mps 722 mmHg 72%

    Tomorrow, 19 November, Monday

    Time Temperature Precipitation Wind Pressure Humidity
    00:00 -3°C° 0 mm 2 mps 722 mmHg 73%
    01:00 -4°C° 0 mm 2 mps 722 mmHg 75%
    02:00 -4°C° 0 mm 2 mps 721 mmHg 76%
    03:00 -4°C° 0 mm 2 mps 721 mmHg 77%
    04:00 -4°C° 0 mm 2 mps 721 mmHg 78%
    05:00 -4°C° 0 mm 2 mps 721 mmHg 79%
    06:00 -4°C° 0 mm 2 mps 721 mmHg 80%
    07:00 -5°C° 0 mm 2 mps 721 mmHg 80%
    08:00 -5°C° 0 mm 3 mps 721 mmHg 75%
    09:00 -4°C° 0 mm 3 mps 721 mmHg 70%
    10:00 -3°C° 0 mm 4 mps 721 mmHg 65%
    11:00 -2°C° 0 mm 4 mps 721 mmHg 65%
    12:00 -2°C° 0 mm 4 mps 721 mmHg 64%
    13:00 -1°C° 0 mm 4 mps 721 mmHg 64%
    14:00 -2°C° 0 mm 4 mps 721 mmHg 67%
    15:00 -1°C° 0 mm 3 mps 721 mmHg 70%
    16:00 -2°C° 0 mm 3 mps 721 mmHg 74%
    17:00 -2°C° 0 mm 3 mps 722 mmHg 76%
    18:00 -2°C° 0 mm 3 mps 722 mmHg 78%
    19:00 -4°C° 0 mm 3 mps 722 mmHg 81%
    20:00 -4°C° 0 mm 3 mps 722 mmHg 82%
    21:00 -4°C° 0 mm 3 mps 722 mmHg 83%
    22:00 -4°C° 0 mm 3 mps 722 mmHg 85%
    23:00 -4°C° 0 mm 3 mps 722 mmHg 85%

    Day after tomorrow, 20 November, Tuesday

    Time Temperature Precipitation Wind Pressure Humidity
    00:00 -4°C° 0 mm 3 mps 722 mmHg 85%
    01:00 -4°C° 0 mm 3 mps 722 mmHg 85%
    02:00 -4°C° 0 mm 3 mps 722 mmHg 86%
    03:00 -4°C° 0 mm 3 mps 721 mmHg 87%
    04:00 -4°C° 0 mm 3 mps 721 mmHg 88%
    05:00 -4°C° 0 mm 3 mps 721 mmHg 88%
    06:00 -4°C° 0 mm 3 mps 721 mmHg 88%
    07:00 -4°C° 0 mm 4 mps 721 mmHg 88%
    08:00 -3°C° 0 mm 4 mps 721 mmHg 84%
    09:00 -2°C° 0 mm 4 mps 720 mmHg 80%
    10:00 -1°C° 0 mm 5 mps 720 mmHg 76%
    11:00 -1°C° 0 mm 5 mps 720 mmHg 72%
    12:00 0°C° 0 mm 5 mps 719 mmHg 69%
    13:00 +1°C° 0 mm 5 mps 719 mmHg 65%
    14:00 +1°C° 0.4 mm 4 mps 719 mmHg 69%
    15:00 0°C° 0.4 mm 4 mps 719 mmHg 74%
    16:00 0°C° 0.4 mm 4 mps 718 mmHg 78%
    17:00 -1°C° 0.6 mm 4 mps 718 mmHg 81%
    18:00 0°C° 0.6 mm 3 mps 718 mmHg 85%
    19:00 0°C° 0.6 mm 3 mps 718 mmHg 88%
    20:00 0°C° 0.1 mm 3 mps 719 mmHg 89%
    21:00 0°C° 0.1 mm 3 mps 719 mmHg 90%
    22:00 +1°C° 0.1 mm 2 mps 719 mmHg 91%
    23:00 -1°C° 0 mm 2 mps 719 mmHg 92%

    21 November, Wednesday

    Time Temperature Precipitation Wind Pressure Humidity
    00:00 -1°C° 0 mm 2 mps 719 mmHg 92%
    01:00 -1°C° 0 mm 2 mps 719 mmHg 92%
    02:00 -1°C° 0 mm 2 mps 719 mmHg 92%
    03:00 -1°C° 0 mm 2 mps 719 mmHg 93%
    04:00 -1°C° 0 mm 2 mps 719 mmHg 93%
    05:00 -1°C° 0 mm 2 mps 720 mmHg 93%
    06:00 -1°C° 0 mm 2 mps 720 mmHg 93%
    07:00 -1°C° 0 mm 2 mps 720 mmHg 92%
    08:00 0°C° 0 mm 3 mps 720 mmHg 91%
    09:00 0°C° 0 mm 3 mps 721 mmHg 89%
    10:00 +1°C° 0 mm 3 mps 721 mmHg 88%
    11:00 +1°C° 0 mm 3 mps 721 mmHg 87%
    12:00 +1°C° 0 mm 3 mps 721 mmHg 86%
    13:00 +2°C° 0 mm 3 mps 721 mmHg 86%
    14:00 +1°C° 0 mm 3 mps 721 mmHg 87%
    15:00 +1°C° 0 mm 3 mps 721 mmHg 88%
    16:00 0°C° 0 mm 3 mps 722 mmHg 89%
    17:00 0°C° 0 mm 3 mps 722 mmHg 90%
    18:00 0°C° 0 mm 3 mps 722 mmHg 90%
    19:00 -1°C° 0 mm 3 mps 722 mmHg 90%
    20:00 -1°C° 0 mm 3 mps 723 mmHg 90%
    21:00 -1°C° 0 mm 3 mps 723 mmHg 90%
    22:00 -2°C° 0 mm 3 mps 723 mmHg 90%
    23:00 -2°C° 0 mm 3 mps 723 mmHg 90%

    22 November, Thursday

    Time Temperature Precipitation Wind Pressure Humidity
    00:00 -2°C° 0 mm 3 mps 723 mmHg 90%
    01:00 -2°C° 0 mm 3 mps 724 mmHg 90%
    02:00 -2°C° 0 mm 2 mps 724 mmHg 90%
    03:00 -2°C° 0 mm 2 mps 724 mmHg 91%
    04:00 -2°C° 0 mm 2 mps 724 mmHg 91%
    05:00 -2°C° 0 mm 2 mps 724 mmHg 91%
    06:00 -2°C° 0 mm 2 mps 724 mmHg 91%
    07:00 -2°C° 0 mm 2 mps 724 mmHg 91%
    08:00 -1°C° 0 mm 2 mps 725 mmHg 89%
    09:00 +1°C° 0 mm 2 mps 725 mmHg 86%
    10:00 +2°C° 0 mm 2 mps 726 mmHg 84%
    11:00 +2°C° 0 mm 2 mps 726 mmHg 83%
    12:00 +3°C° 0 mm 2 mps 726 mmHg 82%
    13:00 +3°C° 0 mm 2 mps 726 mmHg 81%
    14:00 +3°C° 0 mm 2 mps 726 mmHg 84%
    15:00 +2°C° 0 mm 2 mps 726 mmHg 88%
    16:00 +1°C° 0 mm 2 mps 726 mmHg 91%
    17:00 +1°C° 0 mm 2 mps 726 mmHg 91%
    18:00 -1°C° 0 mm 2 mps 727 mmHg 92%
    19:00 -1°C° 0 mm 2 mps 727 mmHg 92%
    20:00 +1°C° 0 mm 1 mps 727 mmHg 93%
    21:00 +1°C° 0 mm 1 mps 727 mmHg 93%
    22:00 0°C° 0 mm 1 mps 728 mmHg 93%
    23:00 0°C° 0 mm 1 mps 728 mmHg 93%

    23 November, Friday

    Time Temperature Precipitation Wind Pressure Humidity
    00:00 0°C° 0 mm 1 mps 728 mmHg 93%
    01:00 0°C° 0 mm 1 mps 728 mmHg 93%
    02:00 0°C° 0 mm 1 mps 728 mmHg 93%
    03:00 0°C° 0 mm 1 mps 728 mmHg 93%
    04:00 0°C° 0 mm 1 mps 728 mmHg 93%
    05:00 0°C° 0 mm 1 mps 728 mmHg 93%
    06:00 0°C° 0 mm 1 mps 728 mmHg 93%
    07:00 +1°C° 0 mm 1 mps 728 mmHg 93%
    08:00 +2°C° 0 mm 1 mps 728 mmHg 89%
    09:00 +3°C° 0 mm 1 mps 729 mmHg 85%
    10:00 +5°C° 0 mm 1 mps 729 mmHg 82%
    11:00 +6°C° 0 mm 1 mps 729 mmHg 80%
    12:00 +6°C° 0 mm 1 mps 729 mmHg 79%
    13:00 +7°C° 0 mm 1 mps 728 mmHg 77%
    14:00 +6°C° 0 mm 1 mps 728 mmHg 81%
    15:00 +5°C° 0 mm 1 mps 728 mmHg 85%
    16:00 +4°C° 0 mm 1 mps 728 mmHg 90%
    17:00 +4°C° 0 mm 1 mps 727 mmHg 90%
    18:00 +4°C° 0 mm 1 mps 727 mmHg 91%
    19:00 +4°C° 0 mm 1 mps 727 mmHg 91%
    20:00 +4°C° 0 mm 1 mps 727 mmHg 91%
    21:00 +4°C° 0 mm 1 mps 727 mmHg 91%
    22:00 +4°C° 0 mm 1 mps 726 mmHg 91%
    23:00 +3°C° 0 mm 1 mps 726 mmHg 92%
    Show more